Regional Weather Roundup
Issued by NWS

Home | Current Version | Previous Version | Text Only | Print | Product List | Glossary On
Versions: 1 2 3 4 5 6 7 8 9 10 11 12 13 14 15 16 17 18 19 20 21 22 23 24 25 26 27 28 29 30 31 32 33 34 35 36 37 38 39 40 41 42 43 44 45 46 47 48 49 50
548
ASUS43 KBIS 280010
RWRND

NORTH DAKOTA REGIONAL WEATHER ROUNDUP
NATIONAL WEATHER SERVICE BISMARCK ND
700 PM CDT THU JUL 27 2017

NOTE: "FAIR" INDICATES FEW OR NO CLOUDS BELOW 12,000 FEET WITH NO
SIGNIFICANT WEATHER AND/OR OBSTRUCTIONS TO VISIBILITY.


NDZ001>003-009>011-017-280100-
NORTHWEST NORTH DAKOTA

CITY           SKY/WX    TMP DP  RH WIND       PRES   REMARKS
WILLISTON      CLOUDY    78  62  57 S6        30.03R
6HR MIN TEMP:  66; 6HR MAX TEMP:  79; 6HR PCP:  0.02;

MINOT          MOSUNNY   83  57  41 SE12      30.03F
MINOT AFB      MOSUNNY   82  57  42 SE8       30.02S
$$

NDZ018>021-031>035-040>046-280100-
SOUTHWEST NORTH DAKOTA

CITY           SKY/WX    TMP DP  RH WIND       PRES   REMARKS
BISMARCK       CLOUDY    83  60  45 E10       30.03F
6HR MIN TEMP:  75; 6HR MAX TEMP:  83;

DICKINSON      LGT RAIN  70  64  81 CALM      30.03F
GARRISON         N/A     74  60  61 E14       30.03F
6HR MIN TEMP:  69; 6HR MAX TEMP:  75;

HETTINGER ARPT CLOUDY    73  54  51 S17       30.06F
$$

NDZ004>008-012>016-024-026-027-054-280100-
NORTHEAST NORTH DAKOTA

CITY           SKY/WX    TMP DP  RH WIND       PRES   REMARKS
GRAND FORKS    MOSUNNY   83  59  44 S6        30.05F
GRND FRKS AFB  MOSUNNY   82  57  41 S5        30.07S
DEVILS LAKE    SUNNY     81  55  40 SE10      30.08F
$$

NDZ022-023-025-028>030-036>039-047>053-280100-
SOUTHEAST NORTH DAKOTA

CITY           SKY/WX    TMP DP  RH WIND       PRES   REMARKS
FARGO          MOSUNNY   83  56  39 NE8       30.05F
6HR MIN TEMP:  81; 6HR MAX TEMP:  86;

JAMESTOWN      MOSUNNY   81  56  42 SE6       30.07F
$$





USA.gov is the U.S. government's official web portal to all federal, state and local government web resources and services.